Weather History for Land O' Lakes, WI

Change the Weather History Date:

Monday, July 15, 2013

  Actual Average (KEGV) Record (KEGV)
Temperature  
Mean Temperature 72 °F -  
Max Temperature 87 °F 78 °F 93 °F (2006)
Min Temperature 56 °F 55 °F 43 °F (2014)
Cooling Degree Days 6    
Growing Degree Days 22 (Base 50)    
Moisture  
Dew Point 62 °F    
Average Humidity 72    
Maximum Humidity 99    
Minimum Humidity 40    
Precipitation  
Precipitation 0.00 in - - ()
Sea Level Pressure  
Sea Level Pressure 30.30 in    
Wind  
Wind Speed 1 mph (SW)    
Max Wind Speed 9 mph    
Max Gust Speed -    
Visibility 8 miles    
Events      
Averages and records for this station are not official NWS values.
T = Trace of Precipitation, MM = Missing Value Source: NWS Daily Summary

Daily Weather History Graph

Daily Weather History Graph

Search for Another Location

Airport:

Trip Planner

Search our weather history database for the weather conditions in past years. The results will help you decide how hot, cold, wet, or windy it might be!

Date:

Astronomy

Jul. 15, 2013 Rise Set
Actual Time 5:20 AM CDT 8:44 PM CDT
Civil Twilight 4:43 AM CDT 9:21 PM CDT
Nautical Twilight 3:54 AM CDT 10:10 PM CDT
Astronomical Twilight 2:51 AM CDT 11:12 PM CDT
Moon 1:08 PM CDT (7/15) No Moon Set
Length of Visible Light 16h 38m
Length of Day
15h 24m
Waxing Crescent, 45% of the Moon is Illuminated
Jul 15
Waxing Crescent
Jul 15
First Quarter
Jul 22
Full
Jul 29
Last Quarter
Aug 6
New

Hourly Weather History & Observations

Time (CDT) Temp. Heat Index Dew Point Humidity Pressure Visibility Wind Dir Wind Speed Gust Speed Precip Events Conditions
12:15 AM 61.2 °F - 60.3 °F 97% 30.28 in 3.0 mi Calm Calm - N/A   Clear
12:35 AM 60.8 °F - 59.9 °F 97% 30.28 in 2.5 mi Calm Calm - N/A   Clear
12:55 AM 60.8 °F - 60.1 °F 97% 30.28 in 4.0 mi Calm Calm - N/A   Scattered Clouds
1:15 AM 60.6 °F - 59.9 °F 97% 30.28 in 4.0 mi Calm Calm - N/A   Scattered Clouds
1:35 AM 60.1 °F - 59.2 °F 97% 30.28 in 3.0 mi Calm Calm - N/A   Clear
1:55 AM 59.9 °F - 59.2 °F 97% 30.28 in 2.5 mi Calm Calm - N/A   Clear
2:15 AM 60.1 °F - 59.4 °F 97% 30.28 in 2.5 mi Calm Calm - N/A   Clear
2:35 AM 59.4 °F - 59.0 °F 99% 30.28 in 1.5 mi Calm Calm - N/A   Mist
2:55 AM 59.2 °F - 58.5 °F 97% 30.29 in 3.0 mi Calm Calm - N/A   Clear
3:15 AM 59.2 °F - 58.6 °F 98% 30.29 in 1.2 mi Calm Calm - N/A   Mist
3:35 AM 58.8 °F - 58.1 °F 97% 30.29 in 2.0 mi Calm Calm - N/A   Clear
3:55 AM 58.3 °F - 57.7 °F 98% 30.29 in 0.8 mi Calm Calm - N/A   Mist
4:15 AM 58.1 °F - 57.6 °F 98% 30.29 in 1.0 mi Calm Calm - N/A   Mist
4:35 AM 58.1 °F - 57.7 °F 99% 30.30 in 0.8 mi Calm Calm - N/A   Mist
4:55 AM 57.2 °F - 56.7 °F 98% 30.30 in 1.2 mi Calm Calm - N/A   Mist
5:15 AM 57.4 °F - 57.2 °F 99% 30.31 in 2.0 mi Calm Calm - N/A   Clear
5:35 AM 56.8 °F - 56.3 °F 98% 30.31 in 1.2 mi Calm Calm - N/A   Mist
5:55 AM 57.0 °F - 56.7 °F 99% 30.31 in 7.0 mi Calm Calm - N/A   Clear
6:15 AM 60.4 °F - 60.1 °F 99% 30.32 in 5.0 mi Calm Calm - N/A   Scattered Clouds
6:35 AM 63.5 °F - 62.6 °F 97% 30.32 in 7.0 mi Calm Calm - N/A   Mostly Cloudy
6:55 AM 64.6 °F - 63.5 °F 96% 30.32 in 7.0 mi Calm Calm - N/A   Scattered Clouds
7:15 AM 66.6 °F - 63.7 °F 90% 30.33 in 7.0 mi Calm Calm - N/A   Scattered Clouds
7:35 AM 68.2 °F - 64.0 °F 87% 30.33 in 10.0 mi Calm Calm - N/A   Scattered Clouds
7:55 AM 69.6 °F - 64.4 °F 83% 30.33 in 10.0 mi Calm Calm - N/A   Clear
8:15 AM 72.0 °F - 64.9 °F 78% 30.33 in 10.0 mi Calm Calm - N/A   Scattered Clouds
8:35 AM 73.8 °F - 64.8 °F 73% 30.33 in 10.0 mi Calm Calm - N/A   Clear
8:55 AM 75.4 °F - 64.0 °F 68% 30.33 in 10.0 mi Calm Calm - N/A   Mostly Cloudy
9:15 AM 77.5 °F - 63.9 °F 63% 30.33 in 10.0 mi Calm Calm - N/A   Scattered Clouds
9:35 AM 79.0 °F - 64.0 °F 60% 30.33 in 10.0 mi South 3.5 mph - N/A   Clear
9:55 AM 79.5 °F - 63.0 °F 57% 30.33 in 10.0 mi WSW 3.5 mph - N/A   Scattered Clouds
10:15 AM 80.1 °F 81.1 °F 61.3 °F 53% 30.33 in 10.0 mi SSW 6.9 mph - N/A   Scattered Clouds
10:35 AM 80.6 °F 81.6 °F 61.5 °F 52% 30.33 in 10.0 mi WSW 4.6 mph - N/A   Scattered Clouds
10:55 AM 81.3 °F 82.1 °F 61.0 °F 50% 30.33 in 10.0 mi SW 5.8 mph - N/A   Scattered Clouds
11:15 AM 80.6 °F 81.5 °F 61.2 °F 51% 30.33 in 10.0 mi West 5.8 mph - N/A   Scattered Clouds
11:35 AM 81.7 °F 82.4 °F 61.3 °F 50% 30.33 in 10.0 mi WSW 4.6 mph - N/A   Scattered Clouds
11:55 AM 81.0 °F 81.7 °F 60.4 °F 50% 30.32 in 10.0 mi West 4.6 mph - N/A   Scattered Clouds
12:15 PM 80.4 °F 81.5 °F 61.7 °F 53% 30.32 in 10.0 mi SW 3.5 mph - N/A   Mostly Cloudy
12:35 PM 82.0 °F 82.5 °F 60.8 °F 48% 30.32 in 10.0 mi WSW 5.8 mph - N/A   Scattered Clouds
12:55 PM 82.6 °F 83.1 °F 61.3 °F 48% 30.32 in 10.0 mi SW 3.5 mph - N/A   Clear
1:15 PM 83.8 °F 84.3 °F 61.9 °F 47% 30.31 in 10.0 mi SW 3.5 mph - N/A   Scattered Clouds
1:35 PM 84.2 °F 84.6 °F 61.5 °F 46% 30.31 in 10.0 mi SW 9.2 mph - N/A   Scattered Clouds
1:55 PM 84.2 °F 84.6 °F 61.3 °F 46% 30.31 in 10.0 mi West 5.8 mph - N/A   Scattered Clouds
2:15 PM 85.6 °F 85.9 °F 61.3 °F 44% 30.30 in 10.0 mi SSW 4.6 mph - N/A   Scattered Clouds
2:35 PM 85.5 °F 85.0 °F 59.5 °F 41% 30.30 in 10.0 mi SW 5.8 mph - N/A   Scattered Clouds
2:55 PM 85.5 °F 85.2 °F 60.3 °F 42% 30.29 in 10.0 mi SSW 3.5 mph - N/A   Scattered Clouds
3:15 PM 86.9 °F 86.5 °F 59.5 °F 40% 30.29 in 10.0 mi SW 8.1 mph - N/A   Scattered Clouds
3:35 PM 87.1 °F 87.0 °F 61.0 °F 41% 30.28 in 10.0 mi WSW 6.9 mph - N/A   Scattered Clouds
3:55 PM 86.4 °F 86.1 °F 60.3 °F 41% 30.28 in 10.0 mi SW 6.9 mph - N/A   Scattered Clouds
4:15 PM 87.1 °F 87.0 °F 60.4 °F 41% 30.28 in 10.0 mi SSW 5.8 mph - N/A   Scattered Clouds
4:35 PM 85.8 °F 85.9 °F 61.0 °F 43% 30.28 in 10.0 mi SSW 3.5 mph - N/A   Scattered Clouds
4:55 PM 84.6 °F 84.8 °F 61.2 °F 45% 30.28 in 10.0 mi SW 4.6 mph - N/A   Scattered Clouds
5:15 PM 84.7 °F 85.4 °F 62.4 °F 47% 30.28 in 10.0 mi WSW 3.5 mph - N/A   Clear
5:35 PM 84.9 °F 85.9 °F 63.5 °F 48% 30.27 in 10.0 mi WSW 3.5 mph - N/A   Clear
5:55 PM 84.7 °F 85.4 °F 62.6 °F 47% 30.27 in 10.0 mi WSW 5.8 mph - N/A   Scattered Clouds
6:15 PM 83.7 °F 84.9 °F 63.5 °F 51% 30.27 in 10.0 mi WSW 4.6 mph - N/A   Scattered Clouds
6:35 PM 81.5 °F 83.4 °F 65.3 °F 58% 30.27 in 10.0 mi Calm Calm - N/A   Scattered Clouds
6:55 PM 82.6 °F 84.7 °F 65.8 °F 57% 30.26 in 10.0 mi SW 3.5 mph - N/A   Scattered Clouds
7:15 PM 81.5 °F 83.7 °F 66.4 °F 60% 30.27 in 10.0 mi WSW 3.5 mph - N/A   Clear
7:35 PM 80.4 °F 82.7 °F 66.9 °F 63% 30.27 in 10.0 mi Calm Calm - N/A   Scattered Clouds
7:55 PM 79.3 °F - 67.3 °F 66% 30.26 in 10.0 mi Calm Calm - N/A   Clear
8:15 PM 77.9 °F - 67.3 °F 70% 30.27 in 10.0 mi Calm Calm - N/A   Scattered Clouds
8:35 PM 76.1 °F - 68.4 °F 77% 30.27 in 10.0 mi Calm Calm - N/A   Mostly Cloudy
8:55 PM 75.9 °F - 68.2 °F 77% 30.27 in 10.0 mi Calm Calm - N/A   Mostly Cloudy
9:15 PM 73.6 °F - 68.5 °F 84% 30.27 in 10.0 mi Calm Calm - N/A   Mostly Cloudy
9:35 PM 72.1 °F - 68.0 °F 87% 30.28 in 10.0 mi Calm Calm - N/A   Scattered Clouds
9:55 PM 71.2 °F - 67.3 °F 87% 30.28 in 10.0 mi Calm Calm - N/A   Clear
10:15 PM 70.2 °F - 67.1 °F 90% 30.28 in 10.0 mi Calm Calm - N/A   Scattered Clouds
10:35 PM 72.1 °F - 66.9 °F 84% 30.28 in 10.0 mi Calm Calm - N/A   Scattered Clouds
10:55 PM 72.3 °F - 66.7 °F 83% 30.28 in 10.0 mi Calm Calm - N/A   Scattered Clouds
11:15 PM 69.8 °F - 66.6 °F 89% 30.28 in 10.0 mi Calm Calm - N/A   Scattered Clouds
11:35 PM 68.9 °F - 66.9 °F 93% 30.28 in 10.0 mi Calm Calm - N/A   Scattered Clouds
11:55 PM 69.1 °F - 66.6 °F 92% 30.28 in 10.0 mi Calm Calm - N/A   Scattered Clouds